owner,sensor,date,latitude,longitude,vertical_datum,wind_speed,wind_to_direction,wind_speed_of_gust,qcFlag 
TABS,ioos:station:wmo:42045:1,2008-03-01T00:00:00Z,26.2168,-96.4998,4.0,5.320761224,131.41924,6.39,'11111222,11111222,11111222' 
TABS,ioos:station:wmo:42045:1,2008-03-01T00:30:00Z,26.2168,-96.4998,4.0,4.608340265,126.1739654,5.78,'11111222,11111222,11111222' 
TABS,ioos:station:wmo:42045:1,2008-03-01T01:00:00Z,26.2168,-96.4998,4.0,4.246975394,119.9460343,5.26,'11111222,11111222,11111222' 
TABS,ioos:station:wmo:42045:1,2008-03-01T01:30:00Z,26.2168,-96.4998,4.0,3.046653902,110.1602194,4.1,'11111222,11111222,11111222' 
TABS,ioos:station:wmo:42045:1,2008-03-01T02:00:00Z,26.2168,-96.4998,4.0,2.406595105,107.9083119,3.14,'11111222,11111222,11111222' 
TABS,ioos:station:wmo:42045:1,2008-03-01T02:30:00Z,26.2168,-96.4998,4.0,2.08434642,107.3052101,2.7,'11111222,11111222,11111222' 
TABS,ioos:station:wmo:42045:1,2008-03-01T03:00:00Z,26.2168,-96.4998,4.0,2.55415348,117.7693444,3.44,'11111222,11111222,11111222' 
TABS,ioos:station:wmo:42045:1,2008-03-01T03:30:00Z,26.2168,-96.4998,4.0,3.556472972,142.1959635,4.63,'11111222,11111222,11111222' 
TABS,ioos:station:wmo:42045:1,2008-03-01T04:00:00Z,26.2168,-96.4998,4.0,3.291397879,137.586104,4.35,'11111222,11111222,11111222' 
TABS,ioos:station:wmo:42045:1,2008-03-01T04:30:00Z,26.2168,-96.4998,4.0,3.54035309,139.6974229,4.76,'11111222,11111222,11111222' 
TABS,ioos:station:wmo:42045:1,2008-03-01T05:00:00Z,26.2168,-96.4998,4.0,2.616447974,135.6197039,3.45,'11111222,11111222,11111222' 
TABS,ioos:station:wmo:42045:1,2008-03-01T05:30:00Z,26.2168,-96.4998,4.0,2.244036542,132.291186,2.98,'11111222,11111222,11111222' 
TABS,ioos:station:wmo:42045:1,2008-03-01T06:00:00Z,26.2168,-96.4998,4.0,2.185245982,135.9273488,2.91,'11111222,11111222,11111222' 
TABS,ioos:station:wmo:42045:1,2008-03-01T06:30:00Z,26.2168,-96.4998,4.0,1.836001089,126.8078188,2.6,'11111222,11111222,11111222' 
TABS,ioos:station:wmo:42045:1,2008-03-01T07:00:00Z,26.2168,-96.4998,4.0,2.072124514,135.9779622,2.98,'11111222,11111222,11111222' 
TABS,ioos:station:wmo:42045:1,2008-03-01T07:30:00Z,26.2168,-96.4998,4.0,2.58172423,136.4127988,3.25,'11111222,11111222,11111222' 
TABS,ioos:station:wmo:42045:1,2008-03-01T08:00:00Z,26.2168,-96.4998,4.0,2.354782368,130.5224466,3.14,'11111222,11111222,11111222' 
TABS,ioos:station:wmo:42045:1,2008-03-01T08:30:00Z,26.2168,-96.4998,4.0,2.170023041,127.1342657,2.96,'11111222,11111222,11111222' 
TABS,ioos:station:wmo:42045:1,2008-03-01T09:00:00Z,26.2168,-96.4998,4.0,2.206399782,125.7795132,2.9,'11111222,11111222,11111222' 
TABS,ioos:station:wmo:42045:1,2008-03-01T09:30:00Z,26.2168,-96.4998,4.0,2.226858774,105.0975408,3.04,'11111222,11111222,11111222' 
TABS,ioos:station:wmo:42045:1,2008-03-01T10:00:00Z,26.2168,-96.4998,4.0,2.242899909,113.9369165,2.97,'11111222,11111222,11111222' 
TABS,ioos:station:wmo:42045:1,2008-03-01T10:30:00Z,26.2168,-96.4998,4.0,2.786485241,130.7800417,3.53,'11111222,11111222,11111222' 
TABS,ioos:station:wmo:42045:1,2008-03-01T11:00:00Z,26.2168,-96.4998,4.0,2.920616373,128.0473745,3.84,'11111222,11111222,11111222' 
TABS,ioos:station:wmo:42045:1,2008-03-01T11:30:00Z,26.2168,-96.4998,4.0,2.676602324,124.3434924,3.29,'11111222,11111222,11111222' 
TABS,ioos:station:wmo:42045:1,2008-03-01T12:00:00Z,26.2168,-96.4998,4.0,2.841126537,125.2566972,3.66,'11111222,11111222,11111222' 
TABS,ioos:station:wmo:42045:1,2008-03-01T12:30:00Z,26.2168,-96.4998,4.0,3.142260333,102.311647,4.13,'11111222,11111222,11111222' 
TABS,ioos:station:wmo:42045:1,2008-03-01T13:00:00Z,26.2168,-96.4998,4.0,3.621118612,109.1858817,4.64,'11111222,11111222,11111222' 
TABS,ioos:station:wmo:42045:1,2008-03-01T13:30:00Z,26.2168,-96.4998,4.0,4.795518741,113.7323623,5.78,'11111222,11111222,11111222' 
TABS,ioos:station:wmo:42045:1,2008-03-01T14:00:00Z,26.2168,-96.4998,4.0,4.089254211,112.4262304,5.04,'11111222,11111222,11111222' 
TABS,ioos:station:wmo:42045:1,2008-03-01T14:30:00Z,26.2168,-96.4998,4.0,3.566286584,113.1145748,4.59,'11111222,11111222,11111222' 
TABS,ioos:station:wmo:42045:1,2008-03-01T15:00:00Z,26.2168,-96.4998,4.0,3.802367683,115.2175258,4.53,'11111222,11111222,11111222' 
TABS,ioos:station:wmo:42045:1,2008-03-01T15:30:00Z,26.2168,-96.4998,4.0,3.189106458,128.3795551,3.97,'11111222,11111222,11111222' 
TABS,ioos:station:wmo:42045:1,2008-03-01T16:00:00Z,26.2168,-96.4998,4.0,2.680167905,135.7561511,3.38,'11111222,11111222,11111222' 
TABS,ioos:station:wmo:42045:1,2008-03-01T16:30:00Z,26.2168,-96.4998,4.0,2.226477038,75.96336844,3.04,'11111222,11111222,11111222' 
TABS,ioos:station:wmo:42045:1,2008-03-01T17:00:00Z,26.2168,-96.4998,4.0,2.663099698,82.44760531,3.66,'11111222,11111222,11111222' 
TABS,ioos:station:wmo:42045:1,2008-03-01T17:30:00Z,26.2168,-96.4998,4.0,3.443965737,107.7513891,4.68,'11111222,11111222,11111222' 
TABS,ioos:station:wmo:42045:1,2008-03-01T18:00:00Z,26.2168,-96.4998,4.0,3.081768973,113.3210184,3.85,'11111222,11111222,11111222' 
TABS,ioos:station:wmo:42045:1,2008-03-01T18:30:00Z,26.2168,-96.4998,4.0,2.92897593,124.2872177,3.69,'11111222,11111222,11111222' 
TABS,ioos:station:wmo:42045:1,2008-03-01T19:00:00Z,26.2168,-96.4998,4.0,2.420950227,132.3217707,3.35,'11111222,11111222,11111222' 
TABS,ioos:station:wmo:42045:1,2008-03-01T19:30:00Z,26.2168,-96.4998,4.0,2.563298656,101.7048584,3.35,'11111222,11111222,11111222' 
TABS,ioos:station:wmo:42045:1,2008-03-01T20:00:00Z,26.2168,-96.4998,4.0,2.449020212,113.844082,3.04,'11111222,11111222,11111222' 
TABS,ioos:station:wmo:42045:1,2008-03-01T20:30:00Z,26.2168,-96.4998,4.0,2.843554114,124.9758523,3.54,'11111222,11111222,11111222' 
TABS,ioos:station:wmo:42045:1,2008-03-01T21:00:00Z,26.2168,-96.4998,4.0,2.461097316,134.0125576,3.01,'11111222,11111222,11111222' 
TABS,ioos:station:wmo:42045:1,2008-03-01T21:30:00Z,26.2168,-96.4998,4.0,1.676215977,136.2089053,2.37,'11111222,11111222,11111222' 
TABS,ioos:station:wmo:42045:1,2008-03-01T22:00:00Z,26.2168,-96.4998,4.0,1.83869519,134.1189138,2.37,'11111222,11111222,11111222' 
TABS,ioos:station:wmo:42045:1,2008-03-01T22:30:00Z,26.2168,-96.4998,4.0,2.559785147,139.2776219,3.18,'11111222,11111222,11111222' 
TABS,ioos:station:wmo:42045:1,2008-03-01T23:00:00Z,26.2168,-96.4998,4.0,2.653243298,148.4069292,3.29,'11111222,11111222,11111222' 
TABS,ioos:station:wmo:42045:1,2008-03-01T23:30:00Z,26.2168,-96.4998,4.0,2.616906571,136.2389475,3.15,'11111222,11111222,11111222' 
TABS,ioos:station:wmo:42045:1,2008-03-02T00:00:00Z,26.2168,-96.4998,4.0,3.129728423,128.7745012,3.72,'11111222,11111222,11111222' 
TABS,ioos:station:wmo:42045:1,2008-03-02T00:30:00Z,26.2168,-96.4998,4.0,2.927729496,135.8306292,3.57,'11111222,11111222,11111222' 
TABS,ioos:station:wmo:42045:1,2008-03-02T01:00:00Z,26.2168,-96.4998,4.0,3.247460546,139.2459165,3.99,'11111222,11111222,11111222' 
TABS,ioos:station:wmo:42045:1,2008-03-02T01:30:00Z,26.2168,-96.4998,4.0,4.003448513,133.5833978,4.76,'11111222,11111222,11111222' 
TABS,ioos:station:wmo:42045:1,2008-03-02T02:00:00Z,26.2168,-96.4998,4.0,3.784137947,133.608359,4.67,'11111222,11111222,11111222' 
TABS,ioos:station:wmo:42045:1,2008-03-02T02:30:00Z,26.2168,-96.4998,4.0,4.294414978,124.9486389,5.17,'11111222,11111222,11111222' 
TABS,ioos:station:wmo:42045:1,2008-03-02T03:00:00Z,26.2168,-96.4998,4.0,4.4034759,125.3867603,5.16,'11111222,11111222,11111222' 
TABS,ioos:station:wmo:42045:1,2008-03-02T03:30:00Z,26.2168,-96.4998,4.0,4.695540437,123.6227243,5.75,'11111222,11111222,11111222' 
TABS,ioos:station:wmo:42045:1,2008-03-02T04:00:00Z,26.2168,-96.4998,4.0,4.250294107,126.196197,5.38,'11111222,11111222,11111222' 
TABS,ioos:station:wmo:42045:1,2008-03-02T04:30:00Z,26.2168,-96.4998,4.0,4.795205939,133.8173879,5.92,'11111222,11111222,11111222' 
TABS,ioos:station:wmo:42045:1,2008-03-02T05:00:00Z,26.2168,-96.4998,4.0,4.257346591,139.7639462,5.54,'11111222,11111222,11111222' 
TABS,ioos:station:wmo:42045:1,2008-03-02T05:30:00Z,26.2168,-96.4998,4.0,4.978112092,135.3258556,6.29,'11111222,11111222,11111222' 
TABS,ioos:station:wmo:42045:1,2008-03-02T06:00:00Z,26.2168,-96.4998,4.0,5.258982791,137.5434039,6.73,'11111222,11111222,11111222' 
TABS,ioos:station:wmo:42045:1,2008-03-02T06:30:00Z,26.2168,-96.4998,4.0,5.390371045,140.3444357,6.63,'11111222,11111222,11111222' 
TABS,ioos:station:wmo:42045:1,2008-03-02T07:00:00Z,26.2168,-96.4998,4.0,5.954040645,142.9186929,7.89,'11111222,11111222,11111222' 
TABS,ioos:station:wmo:42045:1,2008-03-02T07:30:00Z,26.2168,-96.4998,4.0,6.10774099,148.1838319,7.88,'11111222,11111222,11111222' 
TABS,ioos:station:wmo:42045:1,2008-03-02T08:00:00Z,26.2168,-96.4998,4.0,6.021627687,144.4626158,7.73,'11111222,11111222,11111222' 
TABS,ioos:station:wmo:42045:1,2008-03-02T08:30:00Z,26.2168,-96.4998,4.0,6.246038745,143.332208,8.23,'11111222,11111222,11111222' 
TABS,ioos:station:wmo:42045:1,2008-03-02T09:00:00Z,26.2168,-96.4998,4.0,5.836308765,149.5247818,7.79,'11111222,11111222,11111222' 
TABS,ioos:station:wmo:42045:1,2008-03-02T09:30:00Z,26.2168,-96.4998,4.0,5.495088716,149.6087485,6.89,'11111222,11111222,11111222' 
TABS,ioos:station:wmo:42045:1,2008-03-02T10:00:00Z,26.2168,-96.4998,4.0,5.353363429,150.082822,6.74,'11111222,11111222,11111222' 
TABS,ioos:station:wmo:42045:1,2008-03-02T10:30:00Z,26.2168,-96.4998,4.0,5.752564645,146.9179637,7.23,'11111222,11111222,11111222' 
TABS,ioos:station:wmo:42045:1,2008-03-02T11:00:00Z,26.2168,-96.4998,4.0,5.114342577,146.4034358,6.64,'11111222,11111222,11111222' 
TABS,ioos:station:wmo:42045:1,2008-03-02T11:30:00Z,26.2168,-96.4998,4.0,5.014000399,143.1075448,6.38,'11111222,11111222,11111222' 
TABS,ioos:station:wmo:42045:1,2008-03-02T12:00:00Z,26.2168,-96.4998,4.0,4.881936091,145.4313234,6.01,'11111222,11111222,11111222' 
TABS,ioos:station:wmo:42045:1,2008-03-02T12:30:00Z,26.2168,-96.4998,4.0,5.356005975,143.0448193,6.85,'11111222,11111222,11111222' 
TABS,ioos:station:wmo:42045:1,2008-03-02T13:00:00Z,26.2168,-96.4998,4.0,5.524816739,146.3677474,7.35,'11111222,11111222,11111222' 
TABS,ioos:station:wmo:42045:1,2008-03-02T13:30:00Z,26.2168,-96.4998,4.0,6.085326614,149.8116174,7.98,'11111222,11111222,11111222' 
TABS,ioos:station:wmo:42045:1,2008-03-02T14:00:00Z,26.2168,-96.4998,4.0,6.551831805,153.8263119,8.29,'11111222,11111222,11111222' 
TABS,ioos:station:wmo:42045:1,2008-03-02T14:30:00Z,26.2168,-96.4998,4.0,6.574990494,152.4608996,8.41,'11111222,11111222,11111222' 
TABS,ioos:station:wmo:42045:1,2008-03-02T15:00:00Z,26.2168,-96.4998,4.0,7.101380148,156.2507715,8.79,'11111222,11111222,11111222' 
TABS,ioos:station:wmo:42045:1,2008-03-02T15:30:00Z,26.2168,-96.4998,4.0,7.210110956,157.062534,9.29,'11111222,11111222,11111222' 
TABS,ioos:station:wmo:42045:1,2008-03-02T16:00:00Z,26.2168,-96.4998,4.0,7.044693038,157.1113774,8.96,'11111222,11111222,11111222' 
TABS,ioos:station:wmo:42045:1,2008-03-02T16:30:00Z,26.2168,-96.4998,4.0,6.610363076,154.1717284,8.6,'11111222,11111222,11111222' 
TABS,ioos:station:wmo:42045:1,2008-03-02T17:00:00Z,26.2168,-96.4998,4.0,6.570304407,154.2932268,8.49,'11111222,11111222,11111222' 
TABS,ioos:station:wmo:42045:1,2008-03-02T17:30:00Z,26.2168,-96.4998,4.0,7.177220911,151.5427246,9.47,'11111222,11111222,11111222' 
TABS,ioos:station:wmo:42045:1,2008-03-02T18:00:00Z,26.2168,-96.4998,4.0,7.524154438,152.1069635,9.61,'11111222,11111222,11111222' 
TABS,ioos:station:wmo:42045:1,2008-03-02T18:30:00Z,26.2168,-96.4998,4.0,7.502352964,151.9322815,9.53,'11111222,11111222,11111222' 
TABS,ioos:station:wmo:42045:1,2008-03-02T19:00:00Z,26.2168,-96.4998,4.0,7.82857586,151.0451952,10.03,'11111222,11111222,11111222' 
TABS,ioos:station:wmo:42045:1,2008-03-02T19:30:00Z,26.2168,-96.4998,4.0,8.07732629,150.6425256,9.94,'11111222,11111222,11111222' 
TABS,ioos:station:wmo:42045:1,2008-03-02T20:00:00Z,26.2168,-96.4998,4.0,8.209311786,150.9999058,10.37,'11111222,11111222,11111222' 
TABS,ioos:station:wmo:42045:1,2008-03-02T20:30:00Z,26.2168,-96.4998,4.0,8.56481757,147.8318085,10.89,'11111222,11111222,11111222' 
TABS,ioos:station:wmo:42045:1,2008-03-02T21:00:00Z,26.2168,-96.4998,4.0,8.19390017,156.2507715,10.61,'11111222,11111222,11111222' 
TABS,ioos:station:wmo:42045:1,2008-03-02T21:30:00Z,26.2168,-96.4998,4.0,7.683234996,153.7353705,10.01,'11111222,11111222,11111222' 
TABS,ioos:station:wmo:42045:1,2008-03-02T22:00:00Z,26.2168,-96.4998,4.0,7.352781787,146.7640819,9.27,'11111222,11111222,11111222' 
TABS,ioos:station:wmo:42045:1,2008-03-02T22:30:00Z,26.2168,-96.4998,4.0,8.111874013,150.2115947,10.11,'11111222,11111222,11111222' 
TABS,ioos:station:wmo:42045:1,2008-03-02T23:00:00Z,26.2168,-96.4998,4.0,8.679262641,147.9949021,11.5,'11111222,11111222,11111222' 
TABS,ioos:station:wmo:42045:1,2008-03-02T23:30:00Z,26.2168,-96.4998,4.0,8.866955509,147.7620221,11.39,'11111222,11111222,11111222' 
TABS,ioos:station:wmo:42045:1,2008-03-03T00:00:00Z,26.2168,-96.4998,4.0,9.110812258,147.6882617,12.55,'11111222,11111222,11111222' 
TABS,ioos:station:wmo:42045:1,2008-03-03T00:30:00Z,26.2168,-96.4998,4.0,9.051861687,149.3839,11.67,'11111222,11111222,11111222' 
TABS,ioos:station:wmo:42045:1,2008-03-03T01:00:00Z,26.2168,-96.4998,4.0,9.396701549,151.5260734,11.8,'11111222,11111222,11111222' 
TABS,ioos:station:wmo:42045:1,2008-03-03T01:30:00Z,26.2168,-96.4998,4.0,9.481033699,153.1649609,12.05,'11111222,11111222,11111222' 
TABS,ioos:station:wmo:42045:1,2008-03-03T02:00:00Z,26.2168,-96.4998,4.0,9.384689659,150.649177,12.16,'11111222,11111222,11111222' 
TABS,ioos:station:wmo:42045:1,2008-03-03T02:30:00Z,26.2168,-96.4998,4.0,8.186330069,150.4290214,11.11,'11111222,11111222,11111222' 
TABS,ioos:station:wmo:42045:1,2008-03-03T03:00:00Z,26.2168,-96.4998,4.0,6.705318784,150.2236031,8.6,'11111222,11111222,11111222' 
TABS,ioos:station:wmo:42045:1,2008-03-03T03:30:00Z,26.2168,-96.4998,4.0,6.872786917,143.9974381,9.37,'11111222,11111222,11111222' 
TABS,ioos:station:wmo:42045:1,2008-03-03T04:00:00Z,26.2168,-96.4998,4.0,7.410492561,147.7900122,9.7,'11111222,11111222,11111222' 
TABS,ioos:station:wmo:42045:1,2008-03-03T04:30:00Z,26.2168,-96.4998,4.0,6.150772309,165.6928868,8.93,'11111222,11111222,11111222' 
TABS,ioos:station:wmo:42045:1,2008-03-03T05:00:00Z,26.2168,-96.4998,4.0,7.370569856,154.0957609,9.11,'11111222,11111222,11111222' 
TABS,ioos:station:wmo:42045:1,2008-03-03T05:30:00Z,26.2168,-96.4998,4.0,7.67,157.3803984,10.49,'11111222,11111222,11111222' 
TABS,ioos:station:wmo:42045:1,2008-03-03T06:00:00Z,26.2168,-96.4998,4.0,7.267255328,153.6115151,9.37,'11111222,11111222,11111222' 
TABS,ioos:station:wmo:42045:1,2008-03-03T06:30:00Z,26.2168,-96.4998,4.0,8.42112819,153.70907,10.9,'11111222,11111222,11111222' 
TABS,ioos:station:wmo:42045:1,2008-03-03T07:00:00Z,26.2168,-96.4998,4.0,8.26003632,153.4662423,10.22,'11111222,11111222,11111222' 
TABS,ioos:station:wmo:42045:1,2008-03-03T07:30:00Z,26.2168,-96.4998,4.0,7.968437739,156.0085748,10.29,'11111222,11111222,11111222' 
TABS,ioos:station:wmo:42045:1,2008-03-03T08:00:00Z,26.2168,-96.4998,4.0,8.428712832,155.0162285,11.06,'11111222,11111222,11111222' 
TABS,ioos:station:wmo:42045:1,2008-03-03T08:30:00Z,26.2168,-96.4998,4.0,8.511151508,154.1577766,11.08,'11111222,11111222,11111222' 
TABS,ioos:station:wmo:42045:1,2008-03-03T09:00:00Z,26.2168,-96.4998,4.0,8.80657141,155.4432401,11.36,'11111222,11111222,11111222' 
TABS,ioos:station:wmo:42045:1,2008-03-03T09:30:00Z,26.2168,-96.4998,4.0,8.707611613,150.7858988,11.63,'11111222,11111222,11111222' 
TABS,ioos:station:wmo:42045:1,2008-03-03T10:00:00Z,26.2168,-96.4998,4.0,8.975577976,153.4637693,11.82,'11111222,11111222,11111222' 
TABS,ioos:station:wmo:42045:1,2008-03-03T10:30:00Z,26.2168,-96.4998,4.0,8.906099034,154.6724539,11.93,'11111222,11111222,11111222' 
TABS,ioos:station:wmo:42045:1,2008-03-03T11:00:00Z,26.2168,-96.4998,4.0,9.140196934,155.8468352,12.2,'11111222,11111222,11111222' 
TABS,ioos:station:wmo:42045:1,2008-03-03T11:30:00Z,26.2168,-96.4998,4.0,9.057869507,159.2443198,12.33,'11111222,11111222,11111222' 
TABS,ioos:station:wmo:42045:1,2008-03-03T12:00:00Z,26.2168,-96.4998,4.0,8.743557628,165.6302425,11.45,'11111222,11111222,11111222' 
TABS,ioos:station:wmo:42045:1,2008-03-03T12:30:00Z,26.2168,-96.4998,4.0,8.649190714,166.4942024,11.17,'11111222,11111222,11111222' 
TABS,ioos:station:wmo:42045:1,2008-03-03T13:00:00Z,26.2168,-96.4998,4.0,10.02180124,162.1619245,12.56,'11111222,11111222,11111222' 
TABS,ioos:station:wmo:42045:1,2008-03-03T13:30:00Z,26.2168,-96.4998,4.0,10.27872074,164.1926735,13.35,'11111222,11111222,11111222' 
TABS,ioos:station:wmo:42045:1,2008-03-03T14:00:00Z,26.2168,-96.4998,4.0,10.59665041,162.933299,13.84,'11111222,11111222,11111222' 
TABS,ioos:station:wmo:42045:1,2008-03-03T14:30:00Z,26.2168,-96.4998,4.0,9.902736995,166.0341634,13.18,'11111222,11111222,11111222' 
TABS,ioos:station:wmo:42045:1,2008-03-03T15:00:00Z,26.2168,-96.4998,4.0,9.366536179,168.5463458,11.78,'11111222,11111222,11111222' 
TABS,ioos:station:wmo:42045:1,2008-03-03T15:30:00Z,26.2168,-96.4998,4.0,8.93644784,172.0242692,11.9,'11111222,11111222,11111222' 
TABS,ioos:station:wmo:42045:1,2008-03-03T16:00:00Z,26.2168,-96.4998,4.0,8.781537451,177.0628731,11.19,'11111222,11111222,11111222' 
TABS,ioos:station:wmo:42045:1,2008-03-03T16:30:00Z,26.2168,-96.4998,4.0,7.972032363,178.7064259,10.33,'11111222,11111222,11111222' 
TABS,ioos:station:wmo:42045:1,2008-03-03T17:00:00Z,26.2168,-96.4998,4.0,7.052049348,178.618881,9.02,'11111222,11111222,11111222' 
TABS,ioos:station:wmo:42045:1,2008-03-03T17:30:00Z,26.2168,-96.4998,4.0,4.995928342,192.3672778,6.31,'11111222,11111222,11111222' 
TABS,ioos:station:wmo:42045:1,2008-03-03T18:00:00Z,26.2168,-96.4998,4.0,5.925571702,212.4564949,7.75,'11111222,11111222,11111222' 
TABS,ioos:station:wmo:42045:1,2008-03-03T18:30:00Z,26.2168,-96.4998,4.0,4.604888707,221.4786601,6.2,'11111222,11111222,11111222' 
TABS,ioos:station:wmo:42045:1,2008-03-03T19:00:00Z,26.2168,-96.4998,4.0,3.382366036,222.8435476,4.24,'11111222,11111222,11111222' 
TABS,ioos:station:wmo:42045:1,2008-03-03T19:30:00Z,26.2168,-96.4998,4.0,3.762937682,215.5909058,4.75,'11111222,11111222,11111222' 
TABS,ioos:station:wmo:42045:1,2008-03-03T20:00:00Z,26.2168,-96.4998,4.0,9.715765539,325.9499699,13.79,'11111222,11111222,11111222' 
TABS,ioos:station:wmo:42045:1,2008-03-03T20:30:00Z,26.2168,-96.4998,4.0,12.40739296,328.2441232,17.11,'11111222,11111222,11111222' 
TABS,ioos:station:wmo:42045:1,2008-03-03T21:00:00Z,26.2168,-96.4998,4.0,11.9504184,338.9106945,15.77,'11111222,11111222,11111222' 
TABS,ioos:station:wmo:42045:1,2008-03-03T21:30:00Z,26.2168,-96.4998,4.0,12.58358057,340.8881384,17.19,'11111222,11111222,11111222' 
TABS,ioos:station:wmo:42045:1,2008-03-03T22:00:00Z,26.2168,-96.4998,4.0,13.18555649,342.5680392,18.21,'11111222,11111222,11111222' 
TABS,ioos:station:wmo:42045:1,2008-03-03T22:30:00Z,26.2168,-96.4998,4.0,12.17800066,341.371469,16.79,'11111222,11111222,11111222' 
TABS,ioos:station:wmo:42045:1,2008-03-03T23:00:00Z,26.2168,-96.4998,4.0,11.89001682,343.835999,15.29,'11111222,11111222,11111222' 
TABS,ioos:station:wmo:42045:1,2008-03-03T23:30:00Z,26.2168,-96.4998,4.0,12.45423623,347.1017532,15.76,'11111222,11111222,11111222' 
TABS,ioos:station:wmo:42045:1,2008-03-04T00:00:00Z,26.2168,-96.4998,4.0,11.93288314,346.2314224,16.5,'11111222,11111222,11111222' 
TABS,ioos:station:wmo:42045:1,2008-03-04T00:30:00Z,26.2168,-96.4998,4.0,12.65098415,339.5021005,17.34,'11111222,11111222,11111222' 
TABS,ioos:station:wmo:42045:1,2008-03-04T01:00:00Z,26.2168,-96.4998,4.0,12.67448618,341.3647502,17.38,'11111222,11111222,11111222' 
TABS,ioos:station:wmo:42045:1,2008-03-04T01:30:00Z,26.2168,-96.4998,4.0,12.17704808,336.0660211,16.2,'11111222,11111222,11111222' 
TABS,ioos:station:wmo:42045:1,2008-03-04T02:00:00Z,26.2168,-96.4998,4.0,12.61764637,332.4802999,17.58,'11111222,11111222,11111222' 
TABS,ioos:station:wmo:42045:1,2008-03-04T02:30:00Z,26.2168,-96.4998,4.0,13.02895621,329.3604027,18.11,'11111222,11111222,11111222' 
TABS,ioos:station:wmo:42045:1,2008-03-04T03:00:00Z,26.2168,-96.4998,4.0,13.00499904,335.5631842,18.04,'11111222,11111222,11111222' 
TABS,ioos:station:wmo:42045:1,2008-03-04T03:30:00Z,26.2168,-96.4998,4.0,13.01049192,331.1890632,17.64,'11111222,11111222,11111222' 
TABS,ioos:station:wmo:42045:1,2008-03-04T04:00:00Z,26.2168,-96.4998,4.0,12.69923226,337.3522129,16.51,'11111222,11111222,11111222' 
TABS,ioos:station:wmo:42045:1,2008-03-04T04:30:00Z,26.2168,-96.4998,4.0,13.15548935,340.2288246,17.34,'11111222,11111222,11111222' 
TABS,ioos:station:wmo:42045:1,2008-03-04T05:00:00Z,26.2168,-96.4998,4.0,13.61073106,331.6648868,19.83,'11111222,11111222,11111222' 
TABS,ioos:station:wmo:42045:1,2008-03-04T05:30:00Z,26.2168,-96.4998,4.0,13.00652913,328.8396812,17.35,'11111222,11111222,11111222' 
TABS,ioos:station:wmo:42045:1,2008-03-04T06:00:00Z,26.2168,-96.4998,4.0,14.12821999,329.314305,19.68,'11111222,11111222,11111222' 
TABS,ioos:station:wmo:42045:1,2008-03-04T06:30:00Z,26.2168,-96.4998,4.0,13.54306095,326.4740721,18.74,'11111222,11111222,11111222' 
TABS,ioos:station:wmo:42045:1,2008-03-04T07:00:00Z,26.2168,-96.4998,4.0,14.11655057,321.3844427,18.95,'11111222,11111222,11111222' 
TABS,ioos:station:wmo:42045:1,2008-03-04T07:30:00Z,26.2168,-96.4998,4.0,14.02927297,321.0466756,19.23,'11111222,11111222,11111222' 
TABS,ioos:station:wmo:42045:1,2008-03-04T08:00:00Z,26.2168,-96.4998,4.0,13.22189472,325.7569336,19.08,'11111222,11111222,11111222' 
TABS,ioos:station:wmo:42045:1,2008-03-04T08:30:00Z,26.2168,-96.4998,4.0,12.09265893,331.2305787,16.39,'11111222,11111222,11111222' 
TABS,ioos:station:wmo:42045:1,2008-03-04T09:00:00Z,26.2168,-96.4998,4.0,11.43818167,331.3734058,15.73,'11111222,11111222,11111222' 
TABS,ioos:station:wmo:42045:1,2008-03-04T09:30:00Z,26.2168,-96.4998,4.0,11.19557948,340.7556771,14.97,'11111222,11111222,11111222' 
TABS,ioos:station:wmo:42045:1,2008-03-04T10:00:00Z,26.2168,-96.4998,4.0,11.293932,336.4082304,14.56,'11111222,11111222,11111222' 
TABS,ioos:station:wmo:42045:1,2008-03-04T10:30:00Z,26.2168,-96.4998,4.0,10.93994973,330.4823403,15.44,'11111222,11111222,11111222' 
TABS,ioos:station:wmo:42045:1,2008-03-04T11:00:00Z,26.2168,-96.4998,4.0,10.30091743,326.6029101,14.03,'11111222,11111222,11111222' 
TABS,ioos:station:wmo:42045:1,2008-03-04T11:30:00Z,26.2168,-96.4998,4.0,9.943088052,334.4398841,13.12,'11111222,11111222,11111222' 
TABS,ioos:station:wmo:42045:1,2008-03-04T12:00:00Z,26.2168,-96.4998,4.0,10.39232409,337.4817609,13.81,'11111222,11111222,11111222' 
TABS,ioos:station:wmo:42045:1,2008-03-04T12:30:00Z,26.2168,-96.4998,4.0,10.09097121,336.5850443,13.82,'11111222,11111222,11111222' 
TABS,ioos:station:wmo:42045:1,2008-03-04T13:00:00Z,26.2168,-96.4998,4.0,9.741006108,332.7508629,14.11,'11111222,11111222,11111222' 
TABS,ioos:station:wmo:42045:1,2008-03-04T13:30:00Z,26.2168,-96.4998,4.0,9.127814634,333.799736,12.81,'11111222,11111222,11111222' 
TABS,ioos:station:wmo:42045:1,2008-03-04T14:00:00Z,26.2168,-96.4998,4.0,9.278124811,328.8454737,12.2,'11111222,11111222,11111222' 
TABS,ioos:station:wmo:42045:1,2008-03-04T14:30:00Z,26.2168,-96.4998,4.0,8.420095011,323.4021644,11.2,'11111222,11111222,11111222' 
TABS,ioos:station:wmo:42045:1,2008-03-04T15:00:00Z,26.2168,-96.4998,4.0,8.639594898,324.2309166,12.21,'11111222,11111222,11111222' 
TABS,ioos:station:wmo:42045:1,2008-03-04T15:30:00Z,26.2168,-96.4998,4.0,8.551496945,325.5293051,11.68,'11111222,11111222,11111222' 
TABS,ioos:station:wmo:42045:1,2008-03-04T16:00:00Z,26.2168,-96.4998,4.0,8.596912236,327.4928922,11.71,'11111222,11111222,11111222' 
TABS,ioos:station:wmo:42045:1,2008-03-04T16:30:00Z,26.2168,-96.4998,4.0,8.242681602,332.7819755,10.82,'11111222,11111222,11111222' 
TABS,ioos:station:wmo:42045:1,2008-03-04T17:00:00Z,26.2168,-96.4998,4.0,8.559982477,330.7697198,11.96,'11111222,11111222,11111222' 
TABS,ioos:station:wmo:42045:1,2008-03-04T17:30:00Z,26.2168,-96.4998,4.0,8.381360271,334.1073972,10.66,'11111222,11111222,11111222' 
TABS,ioos:station:wmo:42045:1,2008-03-04T18:00:00Z,26.2168,-96.4998,4.0,7.577367617,343.3585246,10.15,'11111222,11111222,11111222' 
TABS,ioos:station:wmo:42045:1,2008-03-04T18:30:00Z,26.2168,-96.4998,4.0,6.9321281,342.1921833,9.34,'11111222,11111222,11111222' 